This demonstration page uses our WeatherBlox Daily Observations layout. Learn more.

41.55636, -103.73856

Hourly Observations for December 4, 2016

Temp ( °F °C ) Dew Point ( °F °C ) Humidity (%) Winds ( mph kmh ) Pressure ( in mb ) Visibility ( mi km ) Precip ( " mm )
12:53 am 00:53 Clear 20 -6.7 12 -11.1 71 71 NW 8 13 30.08 1019 10 16.0934 0 0
1:53 am 01:53 Clear 22 -5.6 14 -10 71 71 NW 10 17 30.07 1018 10 16.0934 0 0
2:53 am 02:53 Clear 22 -5.6 13 -10.6 68 68 NW 5 7 30.08 1019 10 16.0934 0 0
3:53 am 03:53 Clear 20 -6.7 12 -11.1 71 71 WNW 7 11 30.08 1019 10 16.0934 0 0
4:53 am 04:53 Clear 17 -8.3 10 -12.2 74 74 NNW 6 9 30.08 1019 10 16.0934 0 0
5:53 am 05:53 Clear 19 -7.2 11 -11.7 71 71 NW 5 7 30.08 1019 10 16.0934 0 0
6:53 am 06:53 Clear 14 -10 8 -13.3 77 77 N 7 11 30.1 1019 10 16.0934 0 0
7:53 am 07:53 Sunny 19 -7.2 11 -11.7 71 71 WNW 3 6 30.09 1019 10 16.0934 0 0
8:53 am 08:53 Sunny 30 -1.1 17 -8.3 58 58 Calm 30.06 1018 10 16.0934 0 0
9:53 am 09:53 Sunny 39 3.9 18 -7.8 43 43 WNW 7 11 30.03 1017 10 16.0934 0 0
10:53 am 10:53 Sunny 46 7.8 15 -9.4 29 29 W 16 26 29.96 1015 10 16.0934 0 0
11:53 am 11:53 Sunny 48 8.9 13 -10.6 24 24 W 12 19 29.92 1013 10 16.0934 0 0
12:53 pm 12:53 Sunny 47 8.3 14 -10 26 26 WNW 16 26 29.87 1012 10 16.0934 0 0
1:53 pm 13:53 Sunny 50 10 16 -8.9 26 26 W 20 31 29.82 1010 10 16.0934 0 0
2:53 pm 14:53 Sunny 50 10 17 -8.3 27 27 W 17 28 29.8 1009 10 16.0934 0 0
3:53 pm 15:53 Sunny 44 6.7 17 -8.3 34 34 W 7 11 29.8 1009 10 16.0934 0 0
4:53 pm 16:53 Clear 41 5 17 -8.3 38 38 SW 6 9 29.81 1009 10 16.0934 0 0
5:53 pm 17:53 Clear 41 5 19 -7.2 41 41 W 3 6 29.79 1009 10 16.0934 0 0
6:53 pm 18:53 Clear 39 3.9 19 -7.2 45 45 WSW 7 11 29.78 1009 10 16.0934 0 0
7:53 pm 19:53 Clear 29 -1.7 16 -8.9 58 58 E 7 11 29.78 1009 10 16.0934 0 0
8:53 pm 20:53 Clear 32 0 17 -8.3 54 54 E 5 7 29.73 1007 10 16.0934 0 0
9:53 pm 21:53 Mostly Clear 33 0.6 17 -8.3 52 52 E 7 11 29.69 1006 10 16.0934 0 0
10:53 pm 22:53 Clear 42 5.6 19 -7.2 40 40 WSW 9 15 29.62 1003 10 16.0934 0 0
11:53 pm 23:53 Clear 46 7.8 19 -7.2 34 34 W 9 15 29.6 1002 10 16.0934 0 0

Powered by AerisWeather